Simultaneous Nadir Overpasses (SNOs) Predictions

Prediction of SNOs between GOES-16 and METOP-C Satellite Orbit:

Table of predicted SNOs for the next 14.0 days since TLE Epoch: 10/4/2020
Index Date Time (GOES-16) GOES-16 Lat,Lon METOP-C Lat,Lon Distance(km) Time Diff (sec)
1 10/05/2020 02:36:50 0.03, -75.21 -0.15, -76.05 95.44 80
2 10/06/2020 02:13:29 0.03, -75.22 0.94, -71.05 475.37 80
3 10/07/2020 14:35:00 -0.02, -75.27 0.08, -75.60 38.72 80
4 10/10/2020 02:30:39 0.02, -75.28 0.03, -75.21 8.58 80
5 10/12/2020 14:28:50 -0.02, -75.35 -0.15, -74.77 66.13 80
6 10/14/2020 02:50:30 0.02, -75.36 -0.88, -79.37 456.88 80
7 10/15/2020 02:27:10 0.02, -75.38 0.27, -74.38 114.77 80
8 10/16/2020 14:48:40 -0.02, -75.44 0.76, -78.93 397.97 80
9 10/17/2020 14:25:21 -0.02, -75.47 -0.38, -73.95 173.97 80
